User: anonymous   Login
Location: Betra
(48.4113°N, 8.6634°E)
Time: 17:03:21
(UTC+00:00)
Language:

Cosmos 1300 Rocket - Orbit

View from above orbital plane
View from above orbital plane
View from above satellite
View from above satellite

Ground track
Ground track

The orbit data is extracted from the following two-line orbital elements,

1 12786U 81082B   24195.87999549  .00000802  00000-0  88901-4 0  9994
2 12786  82.4871  51.5534 0017331   7.8820 352.2665 14.85987933318243
Epoch (UTC): 13 July 2024 21:07:11
Eccentricity: 0.0017331
inclination: 82.4871°
perigee height: 598 km
apogee height: 622 km
right ascension of ascending node: 51.5534°
argument of perigee: 7.8820°
revolutions per day: 14.85987933
mean anomaly at epoch: 352.2665°
orbit number at epoch: 31824

The dashed part of the orbit path shows where the satellite is in the earth's shadow,  

DLR